Regional Weather Roundup
Issued by NWS

Home | Current Version | Previous Version | Text Only | Print | Product List | Glossary On
Versions: 1 2 3 4 5 6 7 8 9 10 11 12 13 14 15 16 17 18 19 20 21 22 23 24 25 26 27 28 29 30 31 32 33 34 35 36 37 38 39 40 41 42 43 44 45 46 47 48 49 50
000
ASUS45 KCYS 020810
RWRWY

WYOMING REGIONAL WEATHER ROUNDUP
NATIONAL WEATHER SERVICE CHEYENNE WY
200 AM MDT WED SEP 02 2015

NOTE:  "FAIR" INDICATES FEW OR NO CLOUDS BELOW 12,000 FEET
WITH NO SIGNIFICANT WEATHER AND/OR OBSTRUCTIONS TO VISIBILITY.

WYZ001-020900-
YELLOWSTONE NATIONAL PARK

CITY           SKY/WX    TMP DP  RH WIND       PRES   REMARKS
LK YELLOWSTONE   N/A     41  30  65 NW3       30.16F
W YELLOWSTONE  NOT AVBL

$$
WYZ002>013-054>058-071-098>099-020900-
NORTHERN WYOMING

CITY           SKY/WX    TMP DP  RH WIND       PRES   REMARKS
JACKSON        FAIR      46  39  76 N5        30.07S
CODY           FAIR      68  28  22 S3        29.92S
GREYBULL       FAIR      66  36  32 S7        29.84S
WORLAND        FAIR      69  39  33 S9        29.87S
SHERIDAN       FAIR      57  39  51 CALM      29.84S
BUFFALO        FAIR      76  36  23 W17       29.91F
GILLETTE       FAIR      75  40  28 SW16      29.87F
HULETT         FAIR      64  43  45 CALM      29.90S
NEWCASTLE        N/A     63  41  45 SE7       29.95R

$$
WYZ014>020-022>026-101>103-020900-
CENTRAL WYOMING

CITY           SKY/WX    TMP DP  RH WIND       PRES   REMARKS
BIG PINEY      FAIR      50  32  50 CALM      30.15F
PINEDALE       FAIR      46  34  61 CALM      30.18S
DUBOIS         FAIR      52  32  46 NW13      30.12S
LANDER         FAIR      73  37  27 VRB6      30.00F
RIVERTON       FAIR      67  37  33 S8        30.01F
CASPER         FAIR      71  39  31 SW20      30.01F
DOUGLAS        FAIR      64  40  41 CALM      30.00S

$$
WYZ021-027>030-104>119-020900-
SOUTHERN WYOMING

CITY           SKY/WX    TMP DP  RH WIND       PRES   REMARKS
EVANSTON       FAIR      59  39  47 S8        30.17S
KEMMERER       FAIR      54  36  50 CALM      30.18S
FORT BRIDGER   SUNNY     64  39  39 SW16      30.18F
ROCK SPRINGS   FAIR      59  41  51 S6        30.16F
DIXON          FAIR      54  46  72 CALM      30.24S
RAWLINS        FAIR      62  39  42 SW15      30.18S
SARATOGA       FAIR      55  41  58 SE14      30.22F
LARAMIE        FAIR      53  40  61 S9        30.22R
CHEYENNE       FAIR      61  40  45 W7        30.12F
TORRINGTON     FAIR      65  43  44 S3        29.96S
PINE BLUFFS    FAIR      55  37  50 CALM      30.07S

$$



USA.gov is the U.S. government's official web portal to all federal, state and local government web resources and services.